Regional Weather Roundup
Issued by NWS

Home | Current Version | Previous Version | Graphics & Text | Print | Product List | Glossary On
Versions: 1 2 3 4 5 6 7 8 9 10 11 12 13 14 15 16 17 18 19 20 21 22 23 24 25 26 27 28 29 30 31 32 33 34 35 36 37 38 39 40 41 42 43 44 45 46 47 48 49 50
000
ASUS45 KCYS 230010
RWRWY

WYOMING REGIONAL WEATHER ROUNDUP
NATIONAL WEATHER SERVICE CHEYENNE WY
600 PM MDT THU JUN 22 2017

NOTE:  "FAIR" INDICATES FEW OR NO CLOUDS BELOW 12,000 FEET
WITH NO SIGNIFICANT WEATHER AND/OR OBSTRUCTIONS TO VISIBILITY.

WYZ001-230100-
YELLOWSTONE NATIONAL PARK

CITY           SKY/WX    TMP DP  RH WIND       PRES   REMARKS
LK YELLOWSTONE   N/A     62  14  15 W13G22    30.21S
6HR MIN TEMP:  54; 6HR MAX TEMP:  64;

W YELLOWSTONE  NOT AVBL

$$
WYZ002>013-054>058-071-098>099-230100-
NORTHERN WYOMING

CITY           SKY/WX    TMP DP  RH WIND       PRES   REMARKS
JACKSON        SUNNY     70  19  14 VRB6      30.14S
CODY           FAIR      66  29  24 N18G26    30.09R
GREYBULL       FAIR      76  24  14 NW35G41   29.97R
6HR MIN TEMP:  74; 6HR MAX TEMP:  80;

WORLAND        FAIR      78  28  16 NW20G28   29.98R
6HR MIN TEMP:  73; 6HR MAX TEMP:  80;

SHERIDAN       FAIR      71  32  23 N20G25    30.04R
6HR MIN TEMP:  70; 6HR MAX TEMP:  75;

BUFFALO        FAIR      68  31  25 NW22G32   30.06S
6HR MIN TEMP:  64; 6HR MAX TEMP:  70;

GILLETTE       FAIR      69  33  26 NW17      30.00S
6HR MIN TEMP:  68; 6HR MAX TEMP:  75;

NEWCASTLE      FAIR      73  32  21 N16G22    29.98F

$$
WYZ014>020-022>026-101>103-230100-
CENTRAL WYOMING

CITY           SKY/WX    TMP DP  RH WIND       PRES   REMARKS
BIG PINEY      FAIR      73  24  16 N23       30.14R
6HR MIN TEMP:  73; 6HR MAX TEMP:  77;

PINEDALE       FAIR      70  25  18 NW17G28   30.14R
DUBOIS         FAIR      68  14  12 N22G32    30.12R
LANDER         FAIR      77  38  24 N17G24    29.98S
6HR MIN TEMP:  69; 6HR MAX TEMP:  81;

RIVERTON       FAIR      77  33  20 N20G25    29.99R
6HR MIN TEMP:  70; 6HR MAX TEMP:  81;

CASPER         FAIR      76  38  25 NE13      29.98S
6HR MIN TEMP:  68; 6HR MAX TEMP:  78;

DOUGLAS        FAIR      75  39  27 NE12G18   29.98F
6HR MIN TEMP:  69; 6HR MAX TEMP:  77;


$$
WYZ021-027>030-104>119-230100-
SOUTHERN WYOMING

CITY           SKY/WX    TMP DP  RH WIND       PRES   REMARKS
EVANSTON       FAIR      73  34  23 W15       30.16S
6HR MIN TEMP:  73; 6HR MAX TEMP:  77;

KEMMERER         N/A    N/A N/A N/A W21G28    30.16S
FORT BRIDGER   FAIR      79  22  12 NW21G28   30.16S
ROCK SPRINGS   FAIR      78  17  10 W28G37    30.06R
6HR MIN TEMP:  76; 6HR MAX TEMP:  82;

DIXON          FAIR      86  22   9 NW22G30   30.03R
RAWLINS        FAIR      82  27  13 W15G24    30.01S
6HR MIN TEMP:  76; 6HR MAX TEMP:  84;

SARATOGA       FAIR      82  28  14 NW16G23   30.03S
LARAMIE        FAIR      76  39  26 SE12      30.05S
6HR MIN TEMP:  75; 6HR MAX TEMP:  85;

CHEYENNE       FAIR      74  37  26 E9        30.03S
6HR MIN TEMP:  71; 6HR MAX TEMP:  77;

TORRINGTON     PTSUNNY   81  47  30 NE16      29.92R
6HR MIN TEMP:  79; 6HR MAX TEMP:  83;

PINE BLUFFS    FAIR      77  45  31 E9G16     29.98R

$$



USA.gov is the U.S. government's official web portal to all federal, state and local government web resources and services.